Location: *
(23.5860°S, 65.4036°W)
Time: 19:31:11
(UTC+00:00)

TRAILBLAZER - Pass Details

Date: 25 August 2019
Orbit: 606 x 661 km, 64.6° (Epoch: 19 October)

Event Time Altitude Azimuth Distance (km) Brightness Sun altitude
Rises 23:06:40 0° 339° (NNW) 2,876 8.4 -14.0°
Reaches altitude 10° 23:08:56 10° 340° (NNW) 1,970 7.5 -14.5°
Maximum altitude 23:13:22 78° 65° (ENE) 632 4.4 -15.5°
Enters shadow 23:17:30 12° 151° (SSE) 1,843 6.7 -16.4°
